Regional Weather Roundup
Issued by NWS Cleveland, OH

Home | Current Version | Previous Version | Graphics & Text | Print | Product List | Glossary On
Versions: 1 2 3 4 5 6 7 8 9 10 11 12 13 14 15 16 17 18 19 20 21 22 23 24 25 26 27 28 29 30 31 32 33 34 35 36 37 38 39 40 41 42 43 44 45 46 47 48 49 50
000
ASUS41 KCLE 221000
RWRCLE
OHIO REGIONAL WEATHER ROUNDUP
NATIONAL WEATHER SERVICE WILMINGTON, OH
500 AM EST WED NOV 22 2017

NOTE: "FAIR" INDICATES FEW OR NO CLOUDS BELOW 12,000 FEET WITH NO
SIGNIFICANT WEATHER AND/OR OBSTRUCTIONS TO VISIBILITY.

OHZ001>008-015>018-024>027-034-035-043-044-221100-
   NORTHWEST OHIO

CITY           SKY/WX    TMP DP  RH WIND       PRES   REMARKS
DEFIANCE       CLOUDY    32  19  58 NW13      30.19R WCI  22
FINDLAY        CLOUDY    34  23  64 NW13      30.15R WCI  25
TOLEDO EXPRESS CLOUDY    34  24  67 N8        30.17R WCI  27
TOLEDO EXEC    CLOUDY    34  22  61 N12       30.17R WCI  25
LIMA           CLOUDY    32  24  72 N14G20    30.16R WCI  22
$$

OHZ009>014-019>023-028>033-038-089-221100-
   NORTHEAST OHIO

CITY           SKY/WX    TMP DP  RH WIND       PRES   REMARKS
CLE-HOPKINS    FLURRIES  37  29  72 NW13      30.12R
CLE-LAKEFRONT  CLOUDY    35  28  75 N16G25    30.09R WCI  25
CUY CO. ARPT   NOT AVBL
LORAIN-ELYRIA  CLOUDY    34  23  64 N10G21    30.12R WCI  26
ASHTABULA      CLOUDY    34  31  88 NW9       30.07R WCI  27
AKRON-CANTON   CLOUDY    35  31  85 NW6       30.06R
WOOSTER        NOT AVBL
MANSFIELD      CLOUDY    33  28  81 NW9       30.10R WCI  25
YOUNGSTOWN     FLURRIES  35  32  88 NW9G20    30.04R WCI  28
$$

OHZ042-051>053-060>062-070>072-077>081-221100-
  SOUTHWEST OHIO

CITY           SKY/WX    TMP DP  RH WIND       PRES   REMARKS
CINC-COVINGTON FAIR      29  26  89 NW8       30.19R WCI  21
CINC-LUNKEN    FAIR      32  27  81 NW7       30.22R WCI  26
HAMILTON       FAIR      29  26  89 NW8       30.21R WCI  21
DAYTON         NOT AVBL
WRIGHT-PAT AFB MOCLDY    30  27  87 W6        30.17R WCI  24
DAYTON GENERAL FAIR      29  25  85 NW6       30.17R WCI  23
WILMINGTON     FAIR      30  28  92 NW10      30.16R WCI  21
$$

OHZ036-037-039>041-045>050-054>059-063>069-073>076-082>088-221100-
  CENTRAL AND SOUTHEAST OHIO

CITY           SKY/WX    TMP DP  RH WIND       PRES   REMARKS
COLUMBUS       FAIR      34  29  82 NW9       30.14R WCI  27
OSU AIRPORT    CLOUDY    33  29  85 NW7       30.14R WCI  27
BOLTON FIELD   FAIR      31  28  89 NW6       30.15R WCI  25
RICKENBACK AFB NOT AVBL
NEWARK         CLOUDY    35  28  75 NW10      30.12R WCI  27
MARION         CLOUDY    34  26  72 NW12      30.14R WCI  25
LANCASTER      FAIR      34  29  82 NW7       30.13R WCI  28
ZANESVILLE     CLOUDY    36  32  85 NW6       30.11R
NEW PHILLY     CLOUDY    35  31  85 CALM      30.10R
$$



USA.gov is the U.S. government's official web portal to all federal, state and local government web resources and services.